This demonstration page uses our WeatherBlox Daily Observations layout. Learn more.

Left ArrowRight Arrow

34.74481, -87.66753

Hourly Observations for June 30, 2022

Temp ( °F °C ) Dew Point ( °F °C ) Humidity (%) Winds ( mph kmh ) Pressure ( in mb ) Visibility ( mi km ) Precip ( " mm )
12:53 am 00:53 Mostly Cloudy 77 25 69 20.6 77 77 Calm 30.15 1021 10 16 0.00 0.00
1:53 am 01:53 Partly Cloudy 75 23.9 69 20.6 82 82 Calm 30.14 1021 10 16 0.00 0.00
2:53 am 02:53 Clear 71 21.7 68 20 90 90 ESE 5 7 30.13 1020 10 16 0.00 0.00
3:53 am 03:53 Clear 72 22.2 68 20 87 87 SE 3 6 30.14 1021 10 16 0.00 0.00
4:53 am 04:53 Clear 72 22.2 68 20 87 87 SE 5 7 30.14 1021 10 16 0.00 0.00
5:53 am 05:53 Sunny 72 22.2 68 20 87 87 Calm 30.16 1021 10 16 0.00 0.00
6:53 am 06:53 Sunny 75 23.9 69 20.6 82 82 Calm 30.16 1022 10 16 0.00 0.00
7:53 am 07:53 Sunny 79 26.1 70 21.1 74 74 S 7 11 30.17 1022 10 16 0.00 0.00
8:53 am 08:53 Sunny 82 27.8 70 21.1 67 67 VRB 3 6 30.17 1022 10 16 0.00 0.00
9:53 am 09:53 Sunny 85 29.4 71 21.7 63 63 SSE 7 11 30.15 1021 10 16 0.00 0.00
10:53 am 10:53 Mostly Sunny 88 31.1 71 21.7 57 57 SE 7 11 30.14 1021 10 16 0.00 0.00
11:53 am 11:53 Sunny 90 32.2 69 20.6 50 50 S 7 11 30.13 1020 10 16 0.00 0.00
12:53 pm 12:53 Sunny 91 32.8 69 20.6 49 49 SSE 9 15 30.11 1020 10 16 0.00 0.00
1:53 pm 13:53 Partly Cloudy 93 33.9 69 20.6 46 46 SE 9 15 30.09 1019 10 16 0.00 0.00
2:53 pm 14:53 Sunny 94 34.4 69 20.6 44 44 SE 9 15 30.06 1018 10 16 0.00 0.00
3:53 pm 15:53 Sunny 93 33.9 69 20.6 46 46 S 12 19 30.04 1017 10 16 0.00 0.00
4:53 pm 16:53 Sunny 91 32.8 68 20 47 47 SSE 7 11 30.03 1017 10 16 0.00 0.00
5:53 pm 17:53 Sunny 91 32.8 69 20.6 49 49 SSE 8 13 30.02 1017 10 16 0.00 0.00
6:53 pm 18:53 Sunny 87 30.6 69 20.6 55 55 SE 6 9 30.04 1017 10 16 0.00 0.00
7:53 pm 19:53 Sunny 86 30 71 21.7 61 61 S 8 13 30.06 1018 10 16 0.00 0.00
8:53 pm 20:53 Clear 83 28.3 71 21.7 67 67 S 5 7 30.07 1018 10 16 0.00 0.00
9:53 pm 21:53 Clear 81 27.2 71 21.7 72 72 SSW 3 6 30.08 1019 10 16 0.00 0.00
10:53 pm 22:53 Clear 79 26.1 71 21.7 77 77 S 3 6 30.09 1019 10 16 0.00 0.00
11:53 pm 23:53 Clear 77 25 71 21.7 82 82 SSE 3 6 30.08 1019 10 16 0.00 0.00

Powered by AerisWeather